TimeCST,TemperatureF,Dew PointF,Humidity,Sea Level PressureIn,VisibilityMPH,Wind Direction,Wind SpeedMPH,Gust SpeedMPH,PrecipitationIn,Events,Conditions,WindDirDegrees,DateUTC
12:13 AM,44.6,33.8,66,29.94,7.0,South,16.1,19.6,N/A,,Overcast,180,2012-11-06 06:13:00
12:33 AM,44.6,33.8,66,29.94,7.0,South,15.0,20.7,N/A,,Overcast,180,2012-11-06 06:33:00
12:53 AM,44.6,33.8,66,29.94,5.0,South,16.1,20.7,N/A,,Haze,190,2012-11-06 06:53:00
1:13 AM,44.6,33.8,66,29.93,7.0,South,15.0,-,N/A,,Overcast,190,2012-11-06 07:13:00
1:34 AM,44.6,33.8,66,29.92,7.0,South,13.8,19.6,N/A,,Overcast,180,2012-11-06 07:34:00
1:54 AM,44.6,35.6,71,29.92,5.0,South,15.0,20.7,N/A,,Haze,190,2012-11-06 07:54:00
2:13 AM,42.8,35.6,76,29.90,5.0,South,16.1,24.2,0.01,Rain,Light Rain,190,2012-11-06 08:13:00
2:34 AM,42.8,35.6,76,29.89,4.0,South,15.0,21.9,0.02,Rain,Light Rain,190,2012-11-06 08:34:00
2:53 AM,42.8,35.6,76,29.89,4.0,South,16.1,-,0.03,Rain,Light Rain,190,2012-11-06 08:53:00
3:13 AM,42.8,35.6,76,29.87,5.0,South,13.8,-,0.01,Rain,Light Rain,180,2012-11-06 09:13:00
3:33 AM,42.8,35.6,76,29.86,5.0,South,15.0,19.6,0.02,Rain,Light Rain,180,2012-11-06 09:33:00
3:53 AM,42.8,35.6,76,29.84,4.0,South,13.8,21.9,0.02,Rain,Light Rain,170,2012-11-06 09:53:00
4:13 AM,42.8,35.6,76,29.83,4.0,South,16.1,21.9,N/A,Rain,Rain,180,2012-11-06 10:13:00
4:34 AM,42.8,35.6,76,29.82,5.0,South,16.1,21.9,N/A,,Haze,190,2012-11-06 10:34:00
4:54 AM,42.8,35.6,76,29.81,5.0,South,18.4,23.0,N/A,,Haze,190,2012-11-06 10:54:00
5:13 AM,42.8,35.6,76,29.80,5.0,SSW,16.1,-,N/A,Rain,Light Rain,200,2012-11-06 11:13:00
5:33 AM,42.8,35.6,76,29.80,7.0,SSW,19.6,24.2,0.01,Rain,Light Rain,200,2012-11-06 11:33:00
5:53 AM,42.8,35.6,76,29.80,5.0,SSW,20.7,25.3,0.02,Rain,Rain,200,2012-11-06 11:53:00
6:13 AM,42.8,35.6,76,29.79,7.0,SSW,21.9,-,N/A,Rain,Rain,210,2012-11-06 12:13:00
6:33 AM,42.8,35.6,76,29.79,7.0,SSW,18.4,25.3,N/A,,Overcast,210,2012-11-06 12:33:00
6:53 AM,42.8,35.6,76,29.78,2.5,SSW,15.0,-,N/A,Rain,Light Rain,210,2012-11-06 12:53:00
7:13 AM,42.8,37.4,81,29.78,2.5,SSW,15.0,-,N/A,,Light Drizzle,210,2012-11-06 13:13:00
7:34 AM,42.8,37.4,81,29.79,3.0,WSW,11.5,-,N/A,,Drizzle,250,2012-11-06 13:34:00
7:53 AM,44.6,37.4,76,29.78,5.0,SW,12.7,19.6,N/A,,Haze,230,2012-11-06 13:53:00
8:13 AM,44.6,37.4,76,29.79,3.0,WSW,12.7,18.4,N/A,,Haze,250,2012-11-06 14:13:00
8:34 AM,44.6,37.4,76,29.79,5.0,West,16.1,20.7,N/A,,Haze,270,2012-11-06 14:34:00
8:53 AM,44.6,37.4,76,29.80,7.0,WNW,13.8,-,N/A,,Overcast,290,2012-11-06 14:53:00
9:13 AM,44.6,35.6,71,29.80,10.0,WNW,18.4,21.9,N/A,,Overcast,300,2012-11-06 15:13:00
9:33 AM,44.6,35.6,71,29.80,10.0,WNW,17.3,-,N/A,,Overcast,300,2012-11-06 15:33:00
9:54 AM,44.6,35.6,71,29.80,10.0,WNW,13.8,-,N/A,,Overcast,290,2012-11-06 15:54:00
10:13 AM,44.6,35.6,71,29.80,10.0,WNW,18.4,25.3,N/A,,Overcast,290,2012-11-06 16:13:00
10:33 AM,44.6,33.8,66,29.81,10.0,West,19.6,-,N/A,,Overcast,280,2012-11-06 16:33:00
10:53 AM,44.6,33.8,66,29.81,10.0,WNW,19.6,26.5,N/A,,Overcast,290,2012-11-06 16:53:00
11:13 AM,44.6,33.8,66,29.81,10.0,WNW,19.6,-,N/A,,Overcast,300,2012-11-06 17:13:00
11:33 AM,44.6,33.8,66,29.81,10.0,NW,19.6,25.3,N/A,,Scattered Clouds,310,2012-11-06 17:33:00
11:53 AM,46.4,33.8,62,29.80,10.0,WNW,17.3,26.5,N/A,,Mostly Cloudy,300,2012-11-06 17:53:00
12:13 PM,46.4,33.8,62,29.80,10.0,NW,19.6,24.2,N/A,,Overcast,310,2012-11-06 18:13:00
12:33 PM,46.4,33.8,62,29.80,10.0,WNW,18.4,28.8,N/A,,Overcast,300,2012-11-06 18:33:00
12:53 PM,48.2,35.6,62,29.80,10.0,West,16.1,23.0,N/A,,Overcast,280,2012-11-06 18:53:00
1:13 PM,46.4,33.8,62,29.80,10.0,WNW,19.6,-,N/A,,Overcast,300,2012-11-06 19:13:00
1:33 PM,46.4,33.8,62,29.81,10.0,West,18.4,23.0,N/A,,Overcast,280,2012-11-06 19:33:00
1:53 PM,44.6,33.8,66,29.81,10.0,WNW,15.0,-,N/A,,Overcast,290,2012-11-06 19:53:00
2:13 PM,44.6,35.6,71,29.81,4.0,West,15.0,19.6,N/A,,Drizzle,280,2012-11-06 20:13:00
2:34 PM,44.6,35.6,71,29.82,3.0,WNW,13.8,-,N/A,,Drizzle,290,2012-11-06 20:34:00
2:53 PM,44.6,37.4,76,29.82,10.0,WNW,15.0,-,N/A,Rain,Light Rain,290,2012-11-06 20:53:00
3:14 PM,44.6,35.6,71,29.83,7.0,WNW,16.1,19.6,N/A,,Drizzle,290,2012-11-06 21:14:00
3:33 PM,44.6,35.6,71,29.83,5.0,WNW,10.4,-,N/A,Rain,Rain,300,2012-11-06 21:33:00
3:53 PM,44.6,35.6,71,29.84,7.0,WNW,9.2,-,N/A,Rain,Rain,300,2012-11-06 21:53:00
4:13 PM,44.6,35.6,71,29.84,10.0,WNW,11.5,18.4,N/A,Rain,Rain,290,2012-11-06 22:13:00
4:33 PM,44.6,35.6,71,29.84,7.0,WNW,15.0,19.6,N/A,Rain,Light Rain,300,2012-11-06 22:33:00
4:54 PM,42.8,35.6,76,29.85,10.0,WNW,15.0,19.6,0.01,Rain,Light Rain,290,2012-11-06 22:54:00
5:33 PM,42.8,35.6,76,29.85,10.0,West,11.5,-,N/A,,Light Drizzle,280,2012-11-06 23:33:00
5:53 PM,44.6,35.6,71,29.86,5.0,WNW,13.8,23.0,N/A,,Drizzle,290,2012-11-06 23:53:00
6:13 PM,42.8,35.6,76,29.86,10.0,NW,18.4,32.2,0.02,Rain,Light Rain,310,2012-11-07 00:13:00
6:33 PM,42.8,35.6,76,29.87,10.0,NW,15.0,-,0.02,,Overcast,310,2012-11-07 00:33:00
6:53 PM,42.8,35.6,76,29.87,10.0,NW,15.0,-,0.02,,Overcast,310,2012-11-07 00:53:00
7:13 PM,42.8,35.6,76,29.87,10.0,NW,12.7,-,N/A,,Light Drizzle,310,2012-11-07 01:13:00
7:33 PM,42.8,35.6,76,29.88,10.0,NW,12.7,-,N/A,,Light Drizzle,310,2012-11-07 01:33:00
7:53 PM,42.8,35.6,76,29.88,10.0,WNW,11.5,-,N/A,,Overcast,300,2012-11-07 01:53:00
8:13 PM,42.8,35.6,76,29.89,10.0,NW,10.4,-,N/A,,Overcast,310,2012-11-07 02:13:00
8:34 PM,42.8,33.8,70,29.89,10.0,NW,10.4,-,N/A,,Overcast,310,2012-11-07 02:34:00
8:53 PM,42.8,33.8,70,29.90,10.0,NW,15.0,-,N/A,,Overcast,320,2012-11-07 02:53:00
9:13 PM,42.8,32.0,66,29.91,10.0,NNW,11.5,-,N/A,,Overcast,330,2012-11-07 03:13:00
9:34 PM,42.8,32.0,66,29.91,10.0,NNW,12.7,-,N/A,,Overcast,340,2012-11-07 03:34:00
9:53 PM,41.0,32.0,70,29.92,10.0,NNW,10.4,-,N/A,,Overcast,330,2012-11-07 03:53:00
10:13 PM,41.0,32.0,70,29.92,10.0,NNW,10.4,-,N/A,,Overcast,330,2012-11-07 04:13:00
10:33 PM,41.0,32.0,70,29.93,10.0,NNW,11.5,-,N/A,,Overcast,340,2012-11-07 04:33:00
10:53 PM,41.0,32.0,70,29.93,10.0,NNW,10.4,-,N/A,,Overcast,330,2012-11-07 04:53:00
11:14 PM,41.0,32.0,70,29.94,10.0,NNW,13.8,-,N/A,,Overcast,330,2012-11-07 05:14:00
11:33 PM,41.0,32.0,70,29.95,10.0,NNW,9.2,-,N/A,,Overcast,330,2012-11-07 05:33:00
11:54 PM,41.0,32.0,70,29.96,10.0,NNW,6.9,-,N/A,,Overcast,330,2012-11-07 05:54:00